Dewpoint
8 13 10 9 9 10 11 12 13 12 12 11 12 11 10 5 -1 2 11 13 11 9 8 7 5 9 13 12 11 10 9 7 3 -3 -1 -3 -6 4 10 11 11 13 11
4 12 9 9 9 10 11 11 11 11 12 12 11 10 5 2 -0 9 12 4 3 0 -5 -3 5 7 10 10 9 8 7 5 -1 -0 4 6 3 -3 3 6 8 10 8
3 11 8 8 9 10 11 13 13 14 13 11 6 4 1 -1 7 12 13 7 7 1 -8 -8 -4 6 8 8 7 6 4 0 2 7 9 10 8 7 5 10 10 5 4
6 9 8 9 9 13 13 12 14 13 12 8 4 -3 6 1 12 13 13 10 9 3 -9 -2 -3 4 6 6 4 1 0 4 4 7 8 8 9 10 10 12 12 12 11
7 9 9 10 13 13 11 13 13 11 5 3 -2 1 9 5 10 11 13 12 10 1 -7 -7 -1 1 1 0 -1 2 4 4 4 4 8 11 11 11 10 11 11 12 12
7 11 14 13 13 11 12 12 8 4 2 -2 -6 5 14 8 9 12 12 12 9 1 -4 -3 -5 -4 -3 -1 2 4 6 4 3 1 1 9 11 11 11 10 11 11 12
9 13 14 13 11 11 11 9 4 3 -3 -5 -7 4 12 9 8 10 7 8 5 -0 -4 -0 0 -0 0 3 4 4 5 4 3 2 1 0 5 8 8 8 6 6 9
11 14 15 14 11 12 12 10 7 3 -4 -10 -9 2 9 3 4 5 6 2 2 -2 -3 -1 0 1 2 3 5 5 6 6 5 3 2 6 6 3 2 0 -2 -6 -9
12 14 15 14 12 12 12 11 9 5 -2 -8 -11 -11 -1 4 7 6 6 3 1 -3 -2 -1 0 1 2 3 4 5 7 6 5 4 3 3 5 1 -3 -4 -8 -13 -17
12 13 13 13 11 10 12 10 9 8 -1 -4 -9 -10 -10 -10 -6 -0 3 3 1 -3 -2 -0 1 1 1 2 3 4 6 5 5 1 1 4 5 3 3 -2 -8 -15 -18
12 12 12 11 10 10 10 10 9 9 4 0 -5 -8 -8 -8 -8 -5 -2 0 0 -3 -2 -0 0 0 1 1 2 3 4 5 4 1 1 2 4 4 3 1 -6 -13 -17
13 13 12 11 12 11 11 10 9 9 7 5 3 1 -6 -6 -6 -4 -1 -0 -1 -3 -2 -0 1 1 1 1 1 2 3 3 2 2 2 2 3 4 4 3 0 -8 -14
14 14 13 13 13 13 9 10 9 10 9 7 5 3 3 -2 -5 -5 -3 -3 -3 -3 -2 -1 0 2 2 2 2 2 2 3 3 3 3 2 3 5 4 4 3 0 -9
14 13 13 13 13 12 10 10 10 10 8 6 3 3 2 5 1 -3 -4 -3 -3 -2 -1 -0 0 1 2 2 2 2 3 3 4 4 4 4 3 3 4 4 4 3 0
13 13 12 12 10 10 10 9 8 7 6 6 5 2 2 3 6 6 2 2 3 6 8 7 7 5 2 2 2 4 4 3 3 3 4 4 3 3 3 4 4 4 3
13 13 13 12 12 12 12 11 10 9 10 9 8 5 3 5 9 8 8 7 8 8 9 9 9 9 9 8 7 6 7 6 5 6 6 5 4 3 3 3 4 4 4
13 13 13 12 12 12 12 12 12 12 11 11 10 10 10 10 10 11 11 11 11 11 11 11 10 10 10 10 10 10 10 10 9 9 9 9 5 3 3 3 4 4 5
13 12 11 12 13 13 13 12 12 12 12 12 11 11 11 11 11 12 11 10 11 11 11 11 11 11 10 10 10 10 11 11 11 10 10 10 9 7 4 3 3 4 4
10 10 10 12 13 13 13 13 13 13 13 13 13 12 12 12 11 11 11 11 11 12 12 12 12 12 11 11 11 11 11 11 11 11 11 11 11 10 8 6 3 3 4
6 7 10 12 12 12 13 13 13 13 13 13 13 13 13 13 13 12 12 12 12 13 12 12 12 12 12 12 11 11 11 11 11 11 10 10 10 10 10 9 7 4 3
-2 -0 1 6 11 12 12 12 12 13 12 13 13 12 12 12 12 12 13 12 12 13 12 12 12 11 11 11 11 10 10 11 11 10 10 10 10 9 9 9 8 7 4
-2 -2 -3 -1 1 4 7 11 13 13 13 13 12 12 12 12 12 13 13 13 12 12 12 11 11 11 11 11 11 11 11 10 9 9 8 8 8 8 8 8 8 6 5
-3 -2 -3 -3 -2 0 4 6 8 10 10 9 8 9 10 10 8 9 10 11 11 12 12 11 11 12 11 10 10 11 11 9 9 9 9 9 9 8 8 7 6 6 5
-2 -2 -2 -2 -2 -1 -0 0 1 1 1 1 3 4 4 3 2 3 2 2 2 3 4 8 9 9 9 9 9 10 10 11 10 10 9 9 9 8 7 8 7 8 7
-2 -2 -2 -2 -2 -2 -2 -2 -2 -2 -1 -1 -1 -0 -0 -0 -1 -0 -0 0 0 1 2 3 7 9 10 10 9 10 9 9 9 9 9 8 8 8 8 7 7 8 8
-2 -2 -2 -2 -2 -2 -3 -2 -2 -2 -2 -2 -2 -2 -2 -2 -2 -3 -3 -3 -3 -3 -1 2 7 9 10 9 9 10 9 10 9 9 9 9 7 7 6 6 5 6 6
Wind_Speed
23 22 22 19 17 16 15 13 10 8 6 5 4 3 1 3 8 12 12 13 11 7 6 6 5 8 7 6 5 4 4 6 8 9 12 14 14 12 14 12 11 10 9
25 23 22 19 16 15 13 11 10 7 5 4 4 4 4 9 13 15 15 12 11 9 7 5 6 8 7 6 4 3 4 5 7 9 11 13 14 13 10 9 8 5 5
25 24 22 20 17 15 13 12 11 10 6 5 7 7 9 12 15 15 12 10 9 9 8 6 8 9 8 5 4 4 5 6 9 10 10 11 13 13 12 10 8 6 7
25 24 23 20 18 15 14 12 13 11 7 4 7 9 11 15 15 14 9 9 8 9 9 10 10 10 8 7 5 5 7 8 10 9 10 10 11 11 11 12 10 7 8
23 23 21 20 18 16 14 13 12 9 7 8 10 11 11 13 13 11 8 7 7 8 10 10 11 10 9 8 8 7 8 8 8 9 9 11 11 10 7 8 12 12 10
23 23 21 21 18 16 16 13 9 6 5 9 12 11 12 14 12 10 7 5 5 8 9 10 10 10 9 8 8 7 8 10 10 10 8 7 10 8 5 4 4 5 5
22 22 19 20 18 17 15 11 8 5 4 8 13 12 12 13 11 10 7 7 6 7 8 8 8 8 7 6 6 7 6 7 9 9 8 4 2 1 3 4 5 4 5
23 20 19 18 17 16 13 9 8 4 5 4 7 13 12 13 12 10 8 8 7 7 8 7 7 6 5 3 2 4 4 4 6 8 8 6 4 4 3 5 7 8 8
22 20 20 19 17 16 14 11 7 5 6 6 7 6 4 9 11 11 10 9 8 7 8 7 6 5 4 3 2 1 1 3 5 7 7 7 6 7 7 8 9 10 10
20 18 17 17 16 16 15 11 8 7 8 7 7 8 6 5 5 4 5 4 4 5 6 6 5 5 4 4 5 4 3 1 3 5 6 7 8 9 11 11 11 12 11
21 19 17 17 16 15 14 12 11 9 9 8 8 7 7 6 7 7 6 6 4 4 4 3 3 3 4 4 7 6 6 5 5 5 6 8 9 11 12 13 13 13 12
20 17 15 16 16 15 15 14 12 10 8 6 5 5 6 6 6 8 8 8 7 6 6 5 4 4 5 6 8 8 8 8 8 9 9 9 9 11 13 13 13 14 13
16 15 15 16 16 15 12 15 13 12 9 7 5 5 6 8 8 8 8 7 6 6 6 6 7 7 7 8 9 10 11 11 10 10 11 11 10 11 13 14 14 14 14
15 11 12 12 16 15 12 12 12 12 10 9 8 8 8 9 9 9 8 8 7 7 7 8 8 9 9 10 11 13 13 14 14 13 12 13 13 13 15 15 15 14 14
15 12 11 10 13 13 13 12 12 11 10 8 10 10 11 10 9 9 9 9 8 8 8 8 8 10 11 12 14 14 16 16 17 16 16 15 15 15 16 16 16 15 15
14 13 12 11 10 12 11 10 10 9 7 8 9 9 11 10 9 10 9 10 10 10 10 10 9 10 11 13 14 14 15 16 17 18 18 18 17 17 18 18 18 17 17
16 13 14 13 12 14 12 11 11 9 9 8 8 9 10 10 10 11 11 11 10 11 12 12 12 13 14 15 17 16 16 16 18 19 19 19 19 20 19 19 19 19 18
16 16 15 17 16 15 15 14 13 13 12 11 11 11 12 13 12 13 14 13 11 13 14 16 16 17 18 18 19 20 20 20 19 20 21 20 20 21 22 21 20 21 20
12 13 14 16 17 17 16 15 16 16 17 15 15 16 15 16 17 18 18 16 15 16 17 18 19 20 22 22 23 24 23 24 24 23 24 24 23 23 24 23 22 22 22
18 18 17 17 16 16 17 17 18 19 20 20 20 19 19 19 20 21 23 22 22 22 23 23 23 24 25 26 27 28 28 28 28 29 28 28 28 28 27 26 25 25 25
18 22 22 21 21 21 21 21 22 21 23 24 23 22 22 23 24 25 25 26 26 27 27 26 27 27 28 27 29 32 33 31 32 31 30 29 30 30 30 30 30 28 26
22 23 22 21 20 21 24 26 26 25 26 26 24 24 25 25 26 29 30 30 29 30 29 28 29 29 29 28 30 34 34 31 31 27 23 19 19 22 24 26 29 30 28
20 21 21 20 20 21 22 22 24 26 27 27 28 28 29 29 28 28 27 29 29 30 31 29 29 29 29 28 28 28 19 19 23 24 24 24 23 23 24 25 26 27 27
17 17 17 18 18 19 20 21 22 23 24 25 24 24 25 25 25 27 28 29 29 30 31 30 28 29 27 26 24 24 26 27 28 23 22 21 22 25 25 27 23 24 24
19 18 17 17 17 18 19 21 22 23 25 26 26 26 26 28 30 32 32 32 31 31 30 30 29 28 26 24 23 22 23 22 21 25 27 23 24 23 24 26 26 27 25
21 18 17 16 16 16 16 16 17 17 17 17 18 19 18 18 18 19 20 21 23 24 25 26 24 26 25 23 22 21 20 18 18 20 25 27 26 25 24 21 23 23 25
Wind_Direction
166 161 162 164 164 163 166 168 172 173 184 188 192 190 163 81 99 115 112 114 98 83 89 100 125 140 134 123 107 86 53 39 42 57 63 64 66 79 88 87 75 76 56
159 160 162 164 163 162 161 161 166 166 164 181 191 162 105 103 119 120 110 102 83 70 74 110 135 142 137 132 124 74 48 44 60 73 72 68 68 74 80 75 73 78 42
161 158 163 164 161 161 158 155 143 143 155 128 100 109 107 110 123 121 122 102 82 60 65 96 140 146 145 138 110 80 62 72 78 77 74 71 72 73 73 63 57 61 56
161 158 163 163 159 157 159 156 153 166 158 132 113 112 111 122 129 126 122 108 77 60 68 82 119 135 135 128 108 86 81 84 78 76 72 74 76 77 77 63 51 70 67
166 159 162 161 159 165 164 158 166 164 139 125 122 126 121 133 136 131 133 110 78 71 82 91 107 123 125 115 101 90 81 83 78 73 68 69 74 65 74 68 60 82 66
167 162 162 163 166 171 171 168 168 145 151 139 136 134 123 138 139 128 144 136 103 86 92 94 101 113 114 106 96 81 82 81 72 66 61 69 72 79 86 73 77 86 91
168 166 168 172 172 178 179 175 158 151 160 150 154 137 132 134 144 143 140 141 120 101 104 102 103 110 110 103 91 78 77 65 56 48 45 46 67 279 313 327 334 311 298
172 169 170 179 179 182 183 176 170 174 153 148 179 158 149 151 145 148 144 141 135 120 119 120 118 121 123 113 95 75 62 52 40 40 37 35 14 341 353 344 334 329 318
177 170 174 183 186 191 193 193 198 193 168 160 163 192 173 160 165 174 173 164 153 143 144 147 148 149 161 177 203 194 12 15 17 13 17 16 351 2 19 2 352 349 347
181 181 182 186 195 198 200 200 209 198 176 169 170 176 178 182 193 205 198 190 167 162 165 168 171 179 192 216 233 233 271 307 341 352 353 354 349 347 348 354 353 354 354
184 194 198 202 201 199 207 208 212 208 192 177 178 189 188 189 193 195 202 204 203 195 197 206 221 245 250 252 264 265 274 294 320 330 335 337 336 331 338 347 348 351 353
182 184 191 195 203 206 209 216 219 214 207 191 184 206 213 212 211 210 207 208 212 214 215 222 238 256 269 273 280 288 287 291 306 314 318 321 323 322 332 339 340 342 345
178 186 191 198 207 216 223 224 221 221 225 227 231 239 240 234 230 228 228 233 236 241 250 256 261 265 267 273 278 282 284 284 288 298 304 307 309 312 322 330 335 335 336
190 195 193 201 208 215 224 227 228 231 240 248 254 254 254 247 245 245 243 243 245 249 258 269 273 274 278 280 281 282 283 285 288 293 294 298 302 304 308 319 324 328 327
202 204 205 205 204 211 218 222 226 234 245 256 254 254 254 253 257 256 247 248 247 257 274 282 283 281 282 283 281 279 281 283 286 290 294 293 295 296 299 304 311 316 322
212 217 218 216 210 212 215 222 226 232 245 259 259 259 254 254 258 258 257 255 254 263 270 279 284 285 288 286 285 286 285 281 284 289 294 293 293 292 292 295 300 308 313
223 225 234 237 233 232 232 232 234 239 247 259 266 262 263 258 260 264 265 266 269 270 271 277 282 284 287 289 289 288 289 289 287 289 294 295 293 291 291 289 292 297 301
234 235 239 238 239 244 244 246 246 247 253 260 265 266 267 271 272 270 268 268 273 274 276 277 281 283 285 287 291 292 291 289 291 291 289 291 292 292 289 286 285 287 290
227 230 234 240 247 250 255 250 252 254 257 261 264 266 265 267 270 270 272 276 279 277 276 280 282 283 289 290 292 293 292 289 287 286 285 285 287 286 287 287 284 282 282
223 225 229 232 238 245 249 250 250 253 259 263 265 268 268 267 268 269 270 275 278 279 279 280 283 285 286 288 290 290 292 290 287 285 287 286 284 284 284 284 284 280 278
232 230 231 231 235 239 244 250 251 248 252 261 265 268 270 269 269 269 270 274 275 276 280 281 285 284 282 285 286 288 290 291 288 286 288 287 285 287 286 285 283 281 277
242 235 230 232 235 240 245 246 249 254 253 256 258 259 262 263 265 268 268 270 271 272 276 278 278 280 281 282 282 285 289 292 295 299 297 295 294 287 285 287 283 281 278
233 229 227 231 236 240 241 245 246 247 250 254 257 259 261 264 264 264 267 268 269 269 270 271 273 273 278 280 279 280 280 284 295 292 290 289 285 287 287 286 286 285 279
220 222 228 234 239 243 245 247 249 252 256 258 257 257 259 262 266 269 270 270 270 270 269 269 268 272 274 277 278 276 279 284 288 291 286 285 289 292 292 289 295 294 286
220 228 233 237 241 244 248 252 255 259 261 263 263 263 263 265 267 268 270 271 272 270 270 268 267 268 268 268 271 277 279 284 286 286 288 295 296 299 293 295 292 292 290
214 223 235 245 252 256 258 260 262 264 265 265 266 268 268 268 269 271 273 275 276 275 272 267 265 262 263 265 271 270 277 278 282 287 291 297 299 298 289 293 301 300 300
Height
1534 1538 1541 1544 1547 1549 1550 1552 1553 1554 1555 1556 1556 1556 1557 1556 1556 1557 1558 1559 1560 1560 1561 1561 1561 1562 1564 1565 1566 1566 1566 1566 1565 1565 1565 1564 1565 1565 1566 1566 1566 1566 1566
1533 1537 1541 1544 1547 1549 1551 1553 1554 1555 1555 1555 1556 1556 1557 1557 1557 1559 1560 1561 1561 1562 1562 1562 1562 1564 1565 1566 1567 1567 1568 1567 1567 1567 1567 1567 1567 1567 1568 1568 1568 1568 1568
1534 1536 1540 1544 1548 1550 1552 1553 1555 1556 1556 1556 1556 1557 1558 1558 1560 1561 1562 1563 1563 1563 1563 1563 1563 1565 1566 1567 1568 1569 1569 1568 1569 1569 1569 1569 1568 1569 1569 1569 1569 1569 1569
1535 1537 1540 1544 1548 1550 1552 1554 1555 1555 1556 1557 1557 1558 1559 1560 1562 1563 1564 1565 1566 1565 1565 1565 1565 1567 1568 1569 1570 1570 1570 1570 1571 1571 1571 1570 1570 1571 1571 1570 1570 1569 1570
1535 1538 1542 1545 1548 1550 1552 1554 1554 1555 1556 1557 1558 1560 1561 1563 1564 1565 1566 1567 1568 1568 1567 1567 1568 1569 1570 1571 1572 1572 1572 1573 1573 1573 1573 1573 1573 1573 1573 1573 1572 1572 1572
1536 1539 1543 1546 1548 1551 1552 1554 1555 1556 1557 1558 1560 1561 1563 1564 1566 1566 1568 1569 1569 1569 1569 1570 1570 1571 1572 1573 1573 1574 1574 1574 1574 1574 1574 1575 1575 1575 1576 1575 1574 1574 1573
1538 1541 1544 1547 1548 1551 1553 1555 1556 1558 1559 1560 1561 1562 1564 1565 1566 1567 1569 1570 1570 1571 1571 1572 1572 1573 1573 1574 1575 1575 1576 1576 1576 1576 1576 1576 1576 1576 1576 1575 1575 1575 1574
1539 1542 1545 1547 1549 1552 1554 1556 1557 1559 1560 1562 1563 1563 1564 1565 1566 1568 1570 1570 1571 1572 1572 1573 1574 1574 1574 1575 1575 1576 1577 1577 1577 1578 1578 1577 1577 1576 1576 1575 1574 1574 1573
1540 1543 1545 1547 1549 1552 1554 1556 1558 1560 1561 1563 1564 1566 1566 1565 1567 1569 1570 1570 1571 1572 1573 1574 1575 1575 1575 1576 1576 1577 1578 1578 1578 1578 1578 1578 1577 1577 1576 1576 1575 1573 1572
1540 1543 1545 1547 1549 1552 1555 1557 1559 1560 1561 1563 1564 1566 1567 1567 1569 1571 1572 1572 1573 1573 1574 1575 1575 1576 1576 1576 1576 1577 1578 1578 1578 1578 1578 1578 1578 1577 1576 1576 1575 1573 1572
1540 1543 1545 1547 1549 1552 1555 1557 1558 1560 1562 1563 1564 1565 1566 1567 1569 1570 1571 1572 1573 1574 1575 1576 1577 1577 1577 1577 1577 1578 1578 1578 1578 1579 1578 1578 1578 1577 1576 1575 1574 1573 1572
1539 1542 1545 1546 1549 1551 1554 1556 1558 1560 1561 1563 1564 1566 1567 1568 1569 1570 1570 1571 1572 1573 1574 1575 1576 1577 1577 1577 1577 1577 1578 1578 1578 1579 1578 1578 1578 1577 1576 1576 1574 1573 1572
1539 1541 1543 1545 1548 1550 1553 1555 1557 1559 1561 1562 1564 1565 1566 1567 1568 1569 1570 1572 1573 1573 1574 1575 1575 1576 1576 1576 1577 1577 1577 1577 1577 1578 1578 1577 1577 1576 1575 1575 1574 1573 1572
1539 1542 1543 1545 1547 1549 1552 1554 1556 1558 1560 1561 1563 1564 1565 1567 1568 1569 1570 1571 1571 1572 1573 1574 1574 1575 1575 1575 1575 1576 1576 1576 1576 1577 1577 1576 1576 1575 1574 1573 1573 1572 1571
1538 1541 1543 1545 1547 1549 1551 1553 1555 1556 1558 1560 1561 1562 1564 1565 1566 1567 1568 1569 1570 1571 1572 1572 1572 1573 1573 1573 1574 1574 1574 1574 1574 1574 1575 1574 1574 1573 1572 1571 1571 1570 1570
1538 1540 1543 1544 1547 1548 1550 1552 1554 1555 1557 1558 1559 1561 1562 1563 1564 1565 1566 1567 1568 1569 1570 1570 1570 1570 1571 1571 1572 1572 1572 1572 1572 1571 1571 1571 1571 1571 1570 1570 1569 1568 1568
1537 1540 1541 1543 1546 1547 1549 1551 1552 1554 1555 1557 1558 1559 1560 1561 1562 1563 1564 1565 1566 1567 1568 1568 1569 1568 1568 1569 1569 1570 1569 1570 1569 1569 1569 1568 1568 1568 1568 1568 1567 1566 1566
1534 1537 1539 1541 1544 1546 1548 1550 1551 1553 1554 1555 1557 1558 1559 1559 1560 1561 1561 1562 1564 1565 1565 1565 1566 1566 1565 1565 1566 1566 1566 1566 1566 1566 1565 1565 1565 1564 1564 1564 1564 1563 1562
1532 1534 1536 1538 1540 1543 1545 1547 1549 1551 1552 1553 1554 1555 1556 1557 1558 1558 1558 1559 1560 1561 1561 1561 1561 1561 1561 1561 1561 1561 1561 1561 1561 1561 1560 1560 1560 1560 1560 1560 1560 1560 1559
1531 1532 1534 1535 1537 1539 1541 1543 1544 1547 1548 1550 1550 1551 1553 1553 1554 1554 1555 1555 1556 1556 1557 1557 1557 1557 1556 1556 1555 1555 1555 1555 1555 1555 1554 1554 1554 1554 1555 1555 1555 1555 1555
1529 1531 1531 1532 1534 1536 1537 1539 1540 1542 1545 1546 1546 1547 1548 1549 1549 1549 1550 1550 1550 1550 1552 1552 1552 1551 1551 1551 1550 1548 1548 1548 1547 1547 1547 1547 1548 1548 1549 1549 1549 1549 1550
1524 1526 1527 1529 1530 1532 1533 1535 1536 1538 1540 1541 1542 1543 1543 1543 1543 1543 1544 1544 1545 1545 1545 1545 1546 1545 1545 1546 1545 1542 1539 1540 1539 1540 1541 1541 1541 1542 1542 1543 1543 1544 1544
1519 1521 1523 1525 1526 1527 1529 1531 1532 1533 1534 1536 1537 1538 1538 1538 1538 1538 1538 1538 1538 1538 1538 1539 1539 1539 1539 1539 1540 1539 1536 1534 1534 1536 1536 1536 1537 1537 1537 1537 1537 1537 1538
1517 1518 1519 1521 1522 1524 1525 1526 1527 1528 1529 1530 1531 1532 1532 1532 1532 1532 1532 1532 1532 1532 1531 1532 1533 1533 1533 1533 1534 1534 1533 1531 1530 1527 1529 1531 1532 1532 1532 1531 1531 1532 1532
1513 1515 1516 1517 1518 1519 1520 1522 1522 1523 1524 1524 1525 1526 1527 1526 1526 1526 1525 1524 1524 1524 1524 1525 1526 1526 1527 1527 1528 1528 1528 1527 1527 1525 1521 1523 1525 1526 1526 1525 1525 1524 1524
1509 1511 1512 1514 1514 1515 1515 1517 1518 1518 1519 1520 1520 1520 1520 1520 1520 1520 1519 1518 1517 1517 1517 1518 1519 1520 1521 1522 1522 1522 1523 1523 1522 1522 1519 1518 1517 1519 1519 1519 1519 1518 1517